Location: St Paul
(33.9360°N, 83.4200°W)
Time: 03:52:39
(UTC-04:00)

COSMO-SKYMED 1 - Pass Details

Date: 06 October 2017
Orbit: 621 x 623 km, 97.9° (Epoch: 22 October)

Event Time Altitude Azimuth Distance (km) Brightness Sun altitude
Rises 19:50:50 0° 6° (N) 2,904 5.9 -9.1°
Reaches altitude 10° 19:53:03 10° 2° (N) 1,994 5.2 -9.6°
Maximum altitude 19:57:17 55° 285° (WNW) 749 3.4 -10.5°
Drops below altitude 10° 20:01:30 10° 208° (SSW) 1,982 5.5 -11.3°
Sets 20:03:42 0° 204° (SSW) 2,884 6.3 -11.8°
